sat.trackr.live / text

‹ back to catalog

ONEWEB-0359

NORAD 49285 · 2021-090G

PAYLOAD ACTIVE UNKNOWN

§ Identity

Operator
Country
UK
Launch date
2021-10-14
Launch site
VOSTO
Launch vehicle
Mass (kg)
RCS (m²)

Purposes: comms

External: N2YO · Heavens-Above · Gunter

§ Orbital elements

Epoch: 2026-05-24T22:05:00.921120Z

Period
109.03 min
Inclination
87.9175°
Eccentricity
0.0002081
Mean motion
13.20771207 rev/d
Perigee alt
1,180.2 km
Apogee alt
1,183.3 km
Semi-major
7,559.9 km
B*
-1.6422e-4
RAAN
279.0734°
Arg perigee
106.1297°
Mean anomaly
254.0066°
Rev number
22,746

§ Raw data

ONEWEB-03591 49285U 21090G   26144.92014955 -.00000054  00000+0 -16422-3 0  99902 49285  87.9175 279.0734 0002081 106.1297 254.0066 13.20771207227460

JSON: /api/v1/satellites/49285 · /tle

For live sub-satellite position, see the globe view (requires WebGL).

§ Visibility from observer

Set your observer location to see the next 7 days of passes ≥ 10°. The values pass through the URL so the page stays shareable.

No JS? Fill the form by hand. The geolocation button needs JavaScript.